Location: Albany
(35.0170°S, 117.8920°E)
Time: 23:21:04
(UTC+08:00)

S-56A Canister/Altair - Pass Details

Date: 27 June 2021
Orbit: 632 x 2501 km, 38.9° (Epoch: 24 July)

Event Time Altitude Azimuth Distance (km) Brightness Sun altitude
Rises 19:39:07 0° 248° (WSW) 6,176 13.0 -30.5°
Reaches altitude 10° 19:43:14 10° 251° (WSW) 5,181 12.4 -31.3°
Maximum altitude 19:57:57 61° 325° (NW) 2,497 10.0 -34.3°
Enters shadow 20:04:16 34° 29° (NNE) 2,993 10.2 -35.6°
